This demonstration page uses our WeatherBlox Daily Observations layout. Learn more.

Left ArrowRight Arrow

Hourly Observations for May 14, 2021

Temp ( °F °C ) Dew Point ( °F °C ) Humidity (%) Winds ( mph kmh ) Pressure ( in mb ) Visibility ( mi km ) Precip ( " mm )
12:53 am 00:53 Clear 68 20 46 7.8 45 45 Calm 29.88 1012 10 16 0.00 0.00
1:53 am 01:53 Clear 67 19.4 46 7.8 47 47 Calm 29.88 1012 10 16 0.00 0.00
2:53 am 02:53 Clear 63 17.2 47 8.3 56 56 NNE 5 7 29.88 1012 10 16 0.00 0.00
3:53 am 03:53 Clear 60 15.6 45 7.2 58 58 NW 3 6 29.88 1012 10 16 0.00 0.00
4:53 am 04:53 Clear 60 15.6 46 7.8 60 60 Calm 29.87 1012 10 16 0.00 0.00
5:53 am 05:53 Sunny 57 13.9 47 8.3 69 69 Calm 29.87 1012 10 16 0.00 0.00
6:53 am 06:53 Sunny 60 15.6 48 8.9 65 65 Calm 29.88 1012 10 16 0.00 0.00
7:53 am 07:53 Sunny 66 18.9 44 6.7 45 45 Calm 29.88 1012 10 16 0.00 0.00
8:53 am 08:53 Sunny 72 22.2 45 7.2 38 38 Calm 29.87 1012 10 16 0.00 0.00
9:53 am 09:53 Sunny 76 24.4 43 6.1 31 31 Calm 29.86 1011 10 16 0.00 0.00
10:53 am 10:53 Sunny 81 27.2 45 7.2 28 28 Calm 29.84 1010 10 16 0.00 0.00
11:53 am 11:53 Sunny 84 28.9 45 7.2 25 25 Calm 29.82 1010 10 16 0.00 0.00
12:53 pm 12:53 Sunny 85 29.4 46 7.8 26 26 ESE 5 7 29.79 1009 10 16 0.00 0.00
1:53 pm 13:53 Sunny 87 30.6 42 5.6 21 21 VRB 6 9 29.76 1008 10 16 0.00 0.00
2:53 pm 14:53 Sunny 87 30.6 38 3.3 18 18 S 9 15 29.74 1007 10 16 0.00 0.00
3:53 pm 15:53 Sunny 88 31.1 42 5.6 20 20 SSE 9 15 29.71 1006 10 16 0.00 0.00
4:53 pm 16:53 Sunny 87 30.6 42 5.6 21 21 SSE 12 19 29.69 1005 10 16 0.00 0.00
5:53 pm 17:53 Sunny 88 31.1 42 5.6 20 20 SSE 12 19 29.67 1005 10 16 0.00 0.00
6:53 pm 18:53 Sunny 83 28.3 50 10 32 32 S 8 13 29.67 1005 10 16 0.00 0.00
7:53 pm 19:53 Sunny 81 27.2 50 10 34 34 Calm 29.68 1005 10 16 0.00 0.00
8:53 pm 20:53 Mostly Cloudy 80 26.7 49 9.4 34 34 N 13 20 29.71 1006 10 16 0.00 0.00
9:33 pm 21:33 Cloudy with Nearby Thunderstorms 81 27.2 42 5.6 25 25 N 9 15 29.73 1007 10 16 0.00 0.00
9:53 pm 21:53 Mostly Cloudy with Nearby Thunderstorms 80 26.7 42 5.6 26 26 N 14 22 29.74 1007 10 16 0.00 0.00
10:06 pm 22:06 Partly Cloudy 79 26.1 42 5.6 27 27 NNW 8 13 29.74 1007 10 16 0.00 0.00
10:53 pm 22:53 Mostly Cloudy 77 25 44 6.7 31 31 N 13 20 29.77 1008 10 16 0.00 0.00
11:53 pm 23:53 Mostly Cloudy 75 23.9 46 7.8 36 36 N 9 15 29.75 1008 10 16 0.00 0.00

Powered by AerisWeather